Location: Igri�s
(42.2144°N, 0.4320°W)
Time: 17:59:54
(UTC+00:00)

Sich 1 - Pass Details

Date: 13 August 2020
Orbit: 593 x 626 km, 82.5° (Epoch: 17 September)

Event Time Altitude Azimuth Distance (km) Brightness Sun altitude
Rises 19:31:02 0° 170° (S) 2,894 6.2 -5.3°
Reaches altitude 10° 19:33:19 10° 164° (SSE) 1,994 5.3 -5.7°
Maximum altitude 19:37:32 44° 92° (E) 866 3.4 -6.4°
Drops below altitude 10° 19:41:46 10° 21° (NNE) 2,008 5.8 -7.1°
Sets 19:44:04 0° 15° (NNE) 2,918 6.7 -7.5°
